Regional Weather Roundup
Issued by NWS Wakefield, VA

Home | Current Version | Previous Version | Text Only | Print | Product List | Glossary Off
Versions: 1 2 3 4 5 6 7 8 9 10 11 12 13 14 15 16 17 18 19 20 21 22 23 24 25 26 27

000
ASUS41 KAKQ 230510
RWRAKQ

REGIONAL WEATHER ROUNDUP
NATIONAL WEATHER SERVICE WAKEFIELD VA
100 AM EDT THU OCT 23 2014

Note: "fair" indicates few or no clouds below 12,000 feet with no
significant weather and/or obstructions to visibility. * = Denotes
station may not report precipitation (e.g., rain,snow,etc.),
thunder or fog.

VAZ042-051-052>054-056-230600-
NORTHERN VIRGINIA

CITY           SKY/WX    TMP DP  RH WIND       PRES   REMARKS
WASH NATIONAL  MOCLDY    55  41  59 NW17G24   29.92F
DULLES         PTCLDY    50  42  74 NW17      29.94F
FORT BELVOIR   PTCLDY    53  42  68 NW18G25   29.93F
QUANTICO       MOCLDY    53  42  66 NW18G29   29.93F
FREDERICKSBRG* CLOUDY    53  43  68 NW15      29.94F
STAFFORD*      CLOUDY    51  41  68 NW15G24   29.98F
WARRENTON      MOCLDY    52  47  81 NW12G22   29.95F
CULPEPER*      CLEAR     54  43  66 NW9G18    29.97F
MANASSAS*      MOCLDY    52  43  71 NW15G23   29.95F
LEESBURG*      PTCLDY    52  45  76 NW15G25   29.95F
WINCHESTER     CLOUDY    52  37  58 NW13G18   30.00S
FRONT ROYAL*   CLOUDY    50  41  71 NW9G17    30.00F
LURAY*         CLOUDY    54  43  66 N9G17     30.02F
$$

VAZ048-049-060>072-079>083-230600-
CENTRAL AND SOUTH CENTRAL VIRGINIA...AND NORTH CENTRAL NORTH CAROLINA

CITY           SKY/WX    TMP DP  RH WIND       PRES   REMARKS
RICHMOND       CLOUDY    54  42  64 NW12      29.94F
CHESTERFIELD*  CLOUDY   N/A N/A N/A NW8       29.96F
PETERSBURG*    CLOUDY    49  43  80 W6        29.97S
HANOVER        MOCLDY    52  42  69 NW7       29.96F
TAPPAHANNOCK*  CLOUDY    54  41  61 NW9G18    29.92S
CHARLOTTSVILLE CLEAR     53  39  59 VRB7      29.99S
ORANGE*        CLEAR     50  41  71 W3        29.98S
LOUISA*        CLEAR     46  43  87 W6        29.95F
FARMVILLE*     CLEAR     52  39  62 CALM      29.97F
CREWE*         CLEAR     48  42  78 NW7       29.97F
FORT PICKETT*  CLEAR     46  42  87 NW6       29.98S
LUNENBURG*     CLEAR     47  43  85 CALM      29.98F
SOUTH HILL*    CLEAR     50  45  81 CALM      30.03F
LAWRENCEVILLE* CLEAR     45  44  94 CALM      29.97F
ROANOKE RAPIDS CLEAR     50  43  76 NW5       29.98F
RALEIGH        CLEAR     48  40  73 CALM      30.03R
$$

VAZ088>098-230600-
SOUTHEAST VIRGINIA

CITY           SKY/WX    TMP DP  RH WIND       PRES   REMARKS
NORFOLK        CLOUDY    56  45  66 NW8       29.88F
VIRGINIA BEACH CLOUDY    57  47  69 NW17G30   29.87S
NORFOLK NAVAL  CLOUDY    57  45  64 NW17G28   29.90F
WEST POINT*    CLOUDY    56  43  62 NW8G17    29.93S
NEWPORT NEWS   CLOUDY    56  44  64 NW12      29.90F
LANGLEY AFB    CLOUDY    55  46  72 NW17G29   29.89F
FORT EUSTIS    CLOUDY    54  44  68 NW13      29.89F
WILLIAMSBURG*  CLEAR     55  46  71 NW13      29.91F
HR EXEC AP*    CLOUDY    54  45  71 NW7       29.93S
FRANKLIN*      MOCLDY    52  45  76 W8        29.94S
WAKEFIELD      PTCLDY    53  43  68 VRB6      29.93F
$$

VAZ020-022-025-037-045-230600-
WEST CENTRAL AND SOUTHWEST VIRGINIA

CITY           SKY/WX    TMP DP  RH WIND       PRES   REMARKS
STAUNTON*      CLOUDY    50  39  66 NW5       30.06S
HOT SPRINGS VA CLOUDY    39  37  91 NW21G30   30.02F
LYNCHBURG      CLEAR     51  39  63 NW8G18    30.03S
DANVILLE       CLEAR     50  40  68 SW5       30.03S
SOUTH BOSTON*  NOT AVBL
MARTINSVILLE   CLEAR     50  41  72 N8        30.06F
ROANOKE        CLEAR     50  38  63 NW16      30.10F
BLACKSBURG     MOCLDY    46  43  87 NW18      30.12F
DUBLIN*        MOCLDY    46  41  81 NW10G18   30.13S
MARION*        CLOUDY    46  39  78 W6        30.16F
HILLSVILLE*    CLOUDY    44  39  82 N17       30.09F
RICHLANDS*     CLOUDY    45  42  91 NW7       30.17F
WISE*          CLOUDY    43  43 100 N6        30.20S
ABINGDON*      CLOUDY    47  42  83 CALM      30.18S
$$

MDZ021>025-VAZ099-100-230600-
SOUTHERN MARYLAND AND THE DELMARVA PENINSULA

CITY           SKY/WX    TMP DP  RH WIND       PRES   REMARKS
PATUXENT RIVER CLOUDY    53  45  74 NW21      29.86F
BAY BRIDGE APT   N/A     54  45  71 NW15G28   29.86F
LEONARDTOWN    CLOUDY    52  43  71 NW12G20   29.89F
DOVER          LGT RAIN  52  48  87 NW18G28   29.76F
GEORGETOWN     CLOUDY    54  46  74 NW10G21   29.79F
EASTON         CLOUDY    56  48  76 N18G29    29.87F
CAMBRIDGE      CLOUDY    55  45  67 NW17      29.84S VSB<1/4
SALISBURY      CLOUDY    56  46  69 NW16G28   29.80F
OCEAN CITY     CLOUDY    53  47  79 NW13G24   29.77F
WALLOPS ISLAND CLOUDY    56  47  71 NW14G23   29.81F
ACCOMACK*      CLOUDY    55  45  67 N12G32    29.84S
$$

NCZ012>017-030>032-230600-
EASTERN NORTH CAROLINA

CITY           SKY/WX    TMP DP  RH WIND       PRES   REMARKS
ELIZABETH CITY CLOUDY    57  46  66 NW12      29.90F
AHOSKIE*       MOCLDY    51  45  80 CALM      29.97F
EDENTON*       MOCLDY    55  47  75 NW12G17   29.94S
CURRITUCK*     CLOUDY    55  46  71 W8G16     29.90S
KILL DEVIL HLS CLOUDY    56  49  79 NW10G23   29.87S
MANTEO         CLOUDY    56  49  76 NW18G24   29.89S
CAPE HATTERAS  CLOUDY    57  49  74 NW15G24   29.91S
TARBORO*       PTCLDY    51  46  80 W3        30.00S
GOLDSBORO      CLEAR     52  49  92 W6        29.99S
WASHINGTON     CLOUDY    55  45  70 NW6       29.98S
GREENVILLE     MOCLDY    54  46  76 NW5       30.00S
NEW BERN       PTCLDY    56  47  71 W7        29.99S
WILMINGTON     CLEAR     52  44  74 NW7       30.01F
$$

VAZ048-230600-
ELSEWHERE

CITY           SKY/WX    TMP DP  RH WIND       PRES   REMARKS
HARRISBURG PA  CLOUDY    52  42  69 N15G24    29.91F
BALTIMORE      CLOUDY    53  43  68 NW12G20   29.88F
ANNAPOLIS      CLOUDY    55  45  68 NW13G23   29.86F
ANDREWS AFB    MOCLDY    52  43  71 NW18G26   29.89F
WILMINGTON DE  LGT RAIN  53  46  77 NW20      29.80F
PHILADELPHIA   LGT RAIN  52  47  83 NW18      29.77F
WILDWOOD NJ*   CLOUDY    54  46  76 NW10G30   29.74F
ATLANTIC CITY  LGT RAIN  51  50  96 NW16G29   29.70F
HENDERSON NC   CLEAR     49  40  69 W5        30.01S
GREENSBORO     CLEAR     43  38  82 SW5       30.04F
ROCKY MOUNT    CLEAR     52  45  77 W5        30.00S
FAYETTEVILLE   CLEAR     52  41  66 W8        30.04S
CHARLOTTE      CLEAR     44  37  76 NW6       30.11S
$$

VAZ100-230600-
MARINE

STATION/POSITION TIME  TEMP    WIND        PRES    WAVE   SWELL
                       AIR SEA DIR/SP/G            HT/PER HT/PER
                 (UTC) (F)     (DEG/KT/KT) (MB)    (FT/S) (FT/S)
44066 TX TWR #4  0500   62 67   30/ 23/ 27  998.9   10/ 9   5/ 9
CAPE MAY NJ      0500   55 65  330/ 14/ 30 1006.4F
LEWES DE         0500   55 61  330/ 28/ 37 1007.4F
15NM E FENWICK I 0500   57 65  320/ 31/ 39 1005.3F  11/10   7/10
OCEAN-CITY-INLET 0500   54 64  340/ 15/ 20 1007.6S
WACHAPREAGUE VA  0500   56 61  310/  4/ 18 1010.1S
THOMAS POINT MD  0500   54 62  320/ 19/ 22 1012.0F
GOOSES REEF MD   0500   56     330/ 21/ 27 1011.5F
COVE POINT MD    0500   55     340/ 22/ 29 1010.9S
SOLOMONS ISLAND  0500      65                N/A
BISHOPS HEAD MD  0500   55 57  320/ 18/ 22 1010.1F
PINEY POINT MD   0500          340/ 26/ 28   N/A
POTOMAC MD       0500   56     330/ 21/ 29 1010.8F
CAMBRIDGE MD     0500   56 61  320/ 19/ 24 1010.2F
LEWISETTA VA     0500   56 61  320/ 18/ 24 1011.7R
RAPPAHANNOCK LGT 0500          310/ 27/ 31 1011.1F
STINGRAY PT      0500   56     320/ 21/ 25 1012.1S
YORK RVR RNG VA  0500   56     340/ 21/ 25 1011.3F
YORKTOWN VA      0500   57 66  320/ 21/ 25 1011.8F
JAMESTOWN VA     0500   55     340/ 16/ 21   N/A
DOMINION TERM VA 0500   56     340/ 19/ 28 1012.4S
KIPTOPEKE VA     0500      65  340/ 26/ 31   N/A
CHES BAY BRIDGE  0500   57 66  310/ 26/ 30 1011.1S
CHESAPEAKE LGHT  0400   58     320/ 31/ 35 1011.0R
WILLOUBY STN VA  0500   56     320/ 18/ 21 1010.8R
S CRANEY ISL VA  0500          290/ 14/ 22 1011.9S
CAPE HENRY BUOY  0500      68                N/A     7/ 6   2/11
1ST LANDING BUOY 0500   58     320/ 25/ 31 1010.9F
CAPE CHARLES BUO 0500      68                N/A     7/ 4   3/ 9
64NM E OF VA BCH 0500   61 69  320/ 29/ 35 1007.8S  10/ 9   5/ 9
DUCK PIER NC     0500   56 68  310/ 18/ 23 1010.7R
44100 DUCK FRF   0500      69                N/A     8/ 8   2/11
44056 DUCK FRF   0500                        N/A     6/ 8
OREGON INLET NC  0500   57 63  310/ 19/ 24 1011.5S
HATTERAS NC      0500   59 66  320/ 22/ 28 1013.1R
DIAMOND SHLS NC  0500   60     300/ 21/ 27 1012.2R   6/ 5   2/ 9
CAPE LOOKOUT NC  0400   59     320/ 16/ 19 1014.6F
$$



USA.gov is the U.S. government's official web portal to all federal, state and local government web resources and services.